MDT,Max TemperatureF,Mean TemperatureF,Min TemperatureF,Max Dew PointF,MeanDew PointF,Min DewpointF,Max Humidity, Mean Humidity, Min Humidity, Max Sea Level PressureIn, Mean Sea Level PressureIn, Min Sea Level PressureIn, Max VisibilityMiles, Mean VisibilityMiles, Min VisibilityMiles, Max Wind SpeedMPH, Mean Wind SpeedMPH, Max Gust SpeedMPH,PrecipitationIn, CloudCover, Events, WindDirDegrees
2013-3-1,44,36,28,36,27,21,100,76,57,30.58,30.53,30.50,15,11,7,6,2,,0.00,4,,194
2013-3-2,44,34,23,34,27,21,100,84,57,30.54,30.39,30.14,15,9,3,6,2,,0.00,4,,287
2013-3-3,41,36,30,39,33,27,100,89,80,30.12,30.01,29.93,10,7,1,9,2,,0.00,8,Rain,332
2013-3-4,37,32,24,36,24,10,100,71,33,30.29,30.09,29.93,15,11,2,20,11,25,0.00,1,,308
2013-3-5,48,34,19,25,19,14,93,61,31,30.30,30.17,29.99,15,12,10,20,4,23,0.00,1,,129
2013-3-6,57,47,37,32,24,19,81,49,31,29.99,29.92,29.79,15,12,10,21,14,25,0.00,2,,148
2013-3-7,46,40,33,34,31,28,100,83,57,30.00,29.95,29.88,15,12,10,17,10,17,0.00,4,,315
2013-3-8,44,38,32,37,33,30,100,88,66,29.94,29.81,29.71,15,10,8,13,4,,0.00,4,Rain,311
2013-3-9,46,39,32,37,29,21,93,75,43,30.23,29.90,29.70,15,11,8,26,10,33,0.00,3,Rain,325
2013-3-10,46,35,24,39,25,21,100,73,40,30.40,30.32,30.24,15,12,10,10,3,,0.00,0,,71
2013-3-11,50,38,26,30,27,25,100,78,40,30.33,30.27,30.18,15,11,10,8,2,,0.00,5,,187
2013-3-12,55,45,35,36,32,28,87,67,38,30.33,30.28,30.23,15,12,10,13,4,,0.00,4,,329
2013-3-13,64,47,30,36,31,19,93,68,28,30.43,30.35,30.29,15,12,10,7,2,,0.00,1,,145
2013-3-14,73,53,33,36,31,28,93,61,19,30.36,30.28,30.18,15,12,10,8,2,,0.00,1,,158
2013-3-15,68,54,39,37,32,28,81,57,23,30.17,30.10,30.00,15,12,10,10,3,,0.00,2,,290
2013-3-16,60,50,39,36,31,21,81,59,23,30.05,29.97,29.84,15,12,10,13,4,,0.00,1,,220
2013-3-17,48,40,33,37,27,19,75,55,39,30.30,29.91,29.81,15,11,10,28,7,56,0.00,4,,309
2013-3-18,51,40,28,46,26,18,87,66,32,30.13,30.06,30.03,15,12,10,8,3,,0.00,2,,134
2013-3-19,51,43,35,28,21,1,70,49,13,30.26,30.17,30.10,15,12,10,14,6,,0.00,1,,357
2013-3-20,59,46,33,43,28,18,87,56,34,30.17,30.02,29.85,15,12,9,15,4,20,0.01,3,,166
2013-3-21,46,40,33,41,28,12,93,66,31,30.03,29.89,29.76,15,11,8,32,9,46,0.00,3,,330
2013-3-22,33,30,26,27,18,9,86,63,43,30.03,29.96,29.91,15,10,0,21,8,23,0.00,3,Snow,340
2013-3-23,35,29,23,25,21,12,100,78,44,30.21,30.12,30.03,15,9,0,17,8,20,0.00,5,Snow,344
2013-3-24,39,29,19,19,16,9,93,66,31,30.22,30.19,30.16,15,12,10,17,5,,0.00,2,,66
2013-3-25,48,34,19,32,19,12,86,60,32,30.22,30.15,30.06,15,12,10,10,4,,0.00,2,,180
2013-3-26,60,46,32,46,28,23,82,58,23,30.05,29.97,29.89,15,12,10,18,4,,0.00,3,,323
2013-3-27,64,48,32,37,31,25,93,64,22,30.06,30.00,29.95,15,12,10,12,3,,0.00,2,,356
2013-3-28,68,54,39,37,33,27,87,60,23,30.11,30.04,30.00,15,11,10,9,2,,0.00,2,,296
2013-3-29,62,53,44,41,36,32,76,59,34,30.23,30.17,30.11,15,12,10,9,3,,0.00,3,,191
2013-3-30,66,52,39,37,35,28,81,61,28,30.24,30.20,30.14,15,12,10,16,3,,0.00,1,,277
2013-3-31,68,52,37,41,32,25,75,56,20,30.18,30.11,29.95,15,11,10,14,5,25,0.00,2,,160